When you browse on this site, cookies collect data to enhance your experience and personalize the content and advertising you see.
Visit our Privacy Policy to learn more. By continuing to use the site, you agree to this use of cookies and data.
  • en France
  • Liste des pays
  • À 7 jours
  • Température de l'eau
  • Carte météo
  • Widgets météo
  • user-avatar
    Se connecter

    Météo par heure à Tadzhura

    Ce jour, 6 Décembre, Vendredi

    Heure Température Précipitation Vent Pression Humidité
    00:00 +27°C° 0 mm 3 m/s 758 mmHg 70%
    01:00 +27°C° 0 mm 3 m/s 758 mmHg 72%
    02:00 +27°C° 0 mm 3 m/s 757 mmHg 73%
    03:00 +26°C° 0 mm 3 m/s 757 mmHg 75%
    04:00 +26°C° 0 mm 2 m/s 758 mmHg 76%
    05:00 +26°C° 0 mm 2 m/s 758 mmHg 76%
    06:00 +26°C° 0 mm 2 m/s 758 mmHg 77%
    07:00 +27°C° 0 mm 2 m/s 759 mmHg 73%
    08:00 +27°C° 0 mm 3 m/s 759 mmHg 69%
    09:00 +28°C° 0 mm 3 m/s 759 mmHg 65%
    10:00 +29°C° 0 mm 3 m/s 758 mmHg 59%
    11:00 +30°C° 0 mm 3 m/s 758 mmHg 53%
    12:00 +31°C° 0 mm 2 m/s 758 mmHg 47%
    13:00 +31°C° 0 mm 2 m/s 757 mmHg 46%
    14:00 +31°C° 0 mm 3 m/s 756 mmHg 45%
    15:00 +33°C° 0 mm 3 m/s 755 mmHg 44%
    16:00 +31°C° 0 mm 3 m/s 756 mmHg 48%
    17:00 +30°C° 0 mm 3 m/s 756 mmHg 52%
    18:00 +30°C° 0 mm 3 m/s 757 mmHg 57%
    19:00 +29°C° 0 mm 3 m/s 757 mmHg 57%
    20:00 +29°C° 0 mm 3 m/s 757 mmHg 58%
    21:00 +28°C° 0 mm 2 m/s 757 mmHg 58%
    22:00 +28°C° 0 mm 2 m/s 757 mmHg 58%
    23:00 +28°C° 0 mm 2 m/s 757 mmHg 58%

    Demain, 7 Décembre, Samedi

    Heure Température Précipitation Vent Pression Humidité
    00:00 +28°C° 0 mm 2 m/s 757 mmHg 58%
    01:00 +28°C° 0 mm 2 m/s 757 mmHg 61%
    02:00 +27°C° 0 mm 2 m/s 757 mmHg 63%
    03:00 +27°C° 0 mm 2 m/s 756 mmHg 66%
    04:00 +27°C° 0 mm 2 m/s 756 mmHg 68%
    05:00 +27°C° 0 mm 2 m/s 757 mmHg 69%
    06:00 +27°C° 0 mm 2 m/s 757 mmHg 71%
    07:00 +28°C° 0 mm 2 m/s 757 mmHg 67%
    08:00 +28°C° 0 mm 2 m/s 758 mmHg 64%
    09:00 +29°C° 0 mm 2 m/s 758 mmHg 60%
    10:00 +30°C° 0 mm 3 m/s 758 mmHg 58%
    11:00 +31°C° 0 mm 3 m/s 757 mmHg 57%
    12:00 +33°C° 0 mm 3 m/s 757 mmHg 55%
    13:00 +33°C° 0 mm 4 m/s 756 mmHg 55%
    14:00 +33°C° 0 mm 4 m/s 756 mmHg 56%
    15:00 +33°C° 0 mm 4 m/s 755 mmHg 56%
    16:00 +32°C° 0 mm 4 m/s 755 mmHg 60%
    17:00 +30°C° 0 mm 4 m/s 756 mmHg 64%
    18:00 +30°C° 0 mm 3 m/s 756 mmHg 68%
    19:00 +29°C° 0 mm 3 m/s 756 mmHg 69%
    20:00 +29°C° 0 mm 3 m/s 756 mmHg 70%
    21:00 +29°C° 0 mm 2 m/s 756 mmHg 70%
    22:00 +29°C° 0 mm 2 m/s 756 mmHg 71%
    23:00 +29°C° 0 mm 2 m/s 756 mmHg 72%

    Après-demain, 8 Décembre, Dimanche

    Heure Température Précipitation Vent Pression Humidité
    00:00 +29°C° 0 mm 2 m/s 756 mmHg 72%
    01:00 +28°C° 0 mm 2 m/s 756 mmHg 75%
    02:00 +28°C° 0 mm 1 m/s 756 mmHg 77%
    03:00 +28°C° 0 mm 1 m/s 755 mmHg 80%
    04:00 +28°C° 0 mm 1 m/s 756 mmHg 80%
    05:00 +28°C° 0 mm 1 m/s 756 mmHg 81%
    06:00 +28°C° 0 mm 1 m/s 756 mmHg 81%
    07:00 +29°C° 0 mm 2 m/s 757 mmHg 78%
    08:00 +29°C° 0 mm 2 m/s 757 mmHg 74%
    09:00 +30°C° 0 mm 3 m/s 757 mmHg 71%
    10:00 +30°C° 0.3 mm 3 m/s 757 mmHg 72%
    11:00 +29°C° 0.3 mm 3 m/s 757 mmHg 73%
    12:00 +29°C° 0.3 mm 3 m/s 756 mmHg 75%
    13:00 +29°C° 0.2 mm 3 m/s 756 mmHg 75%
    14:00 +29°C° 0.2 mm 3 m/s 755 mmHg 75%
    15:00 +29°C° 0.2 mm 3 m/s 755 mmHg 76%
    16:00 +29°C° 0.6 mm 3 m/s 755 mmHg 79%
    17:00 +28°C° 0.6 mm 2 m/s 755 mmHg 82%
    18:00 +28°C° 0.6 mm 2 m/s 756 mmHg 85%
    19:00 +28°C° 0.6 mm 2 m/s 756 mmHg 83%
    20:00 +28°C° 0.6 mm 1 m/s 756 mmHg 82%
    21:00 +28°C° 0.6 mm 1 m/s 757 mmHg 80%
    22:00 +28°C° 0.2 mm 1 m/s 757 mmHg 82%
    23:00 +28°C° 0.2 mm 1 m/s 757 mmHg 84%

    9 Décembre, Lundi

    Heure Température Précipitation Vent Pression Humidité
    00:00 +28°C° 0.2 mm 1 m/s 756 mmHg 86%
    01:00 +28°C° 0.1 mm 1 m/s 756 mmHg 85%
    02:00 +28°C° 0.1 mm 1 m/s 756 mmHg 85%
    03:00 +28°C° 0.1 mm 1 m/s 755 mmHg 84%
    04:00 +28°C° 0 mm 1 m/s 756 mmHg 85%
    05:00 +28°C° 0 mm 1 m/s 756 mmHg 85%
    06:00 +28°C° 0 mm 1 m/s 756 mmHg 85%
    07:00 +28°C° 0 mm 1 m/s 757 mmHg 84%
    08:00 +28°C° 0 mm 1 m/s 757 mmHg 83%
    09:00 +28°C° 0 mm 1 m/s 758 mmHg 82%
    10:00 +29°C° 0.1 mm 2 m/s 757 mmHg 77%
    11:00 +30°C° 0.1 mm 2 m/s 757 mmHg 72%
    12:00 +31°C° 0.1 mm 3 m/s 757 mmHg 67%
    13:00 +31°C° 0 mm 3 m/s 756 mmHg 66%
    14:00 +31°C° 0 mm 3 m/s 755 mmHg 65%
    15:00 +31°C° 0 mm 3 m/s 754 mmHg 64%
    16:00 +31°C° 0 mm 3 m/s 755 mmHg 65%
    17:00 +31°C° 0 mm 2 m/s 755 mmHg 67%
    18:00 +30°C° 0 mm 2 m/s 755 mmHg 68%
    19:00 +30°C° 0 mm 2 m/s 755 mmHg 69%
    20:00 +30°C° 0 mm 2 m/s 756 mmHg 70%
    21:00 +30°C° 0 mm 2 m/s 757 mmHg 72%
    22:00 +29°C° 0 mm 2 m/s 756 mmHg 73%
    23:00 +29°C° 0 mm 2 m/s 756 mmHg 74%

    10 Décembre, Mardi

    Heure Température Précipitation Vent Pression Humidité
    00:00 +29°C° 0 mm 2 m/s 756 mmHg 75%
    01:00 +29°C° 0 mm 2 m/s 756 mmHg 78%
    02:00 +28°C° 0 mm 2 m/s 756 mmHg 80%
    03:00 +28°C° 0 mm 2 m/s 755 mmHg 83%
    04:00 +28°C° 0 mm 2 m/s 756 mmHg 84%
    05:00 +28°C° 0 mm 2 m/s 756 mmHg 85%
    06:00 +28°C° 0 mm 2 m/s 757 mmHg 86%
    07:00 +28°C° 0 mm 2 m/s 757 mmHg 82%
    08:00 +29°C° 0 mm 3 m/s 757 mmHg 79%
    09:00 +30°C° 0 mm 3 m/s 758 mmHg 75%
    10:00 +30°C° 0 mm 3 m/s 757 mmHg 73%
    11:00 +31°C° 0 mm 3 m/s 757 mmHg 70%
    12:00 +32°C° 0 mm 4 m/s 756 mmHg 67%
    13:00 +32°C° 0 mm 4 m/s 755 mmHg 67%
    14:00 +32°C° 0 mm 4 m/s 755 mmHg 66%
    15:00 +33°C° 0 mm 4 m/s 754 mmHg 66%
    16:00 +32°C° 0 mm 4 m/s 754 mmHg 69%
    17:00 +30°C° 0 mm 4 m/s 754 mmHg 71%
    18:00 +30°C° 0 mm 4 m/s 754 mmHg 74%
    19:00 +30°C° 0 mm 4 m/s 755 mmHg 77%
    20:00 +29°C° 0 mm 3 m/s 756 mmHg 79%
    21:00 +29°C° 0 mm 3 m/s 756 mmHg 82%
    22:00 +29°C° 0.1 mm 3 m/s 756 mmHg 83%
    23:00 +29°C° 0.1 mm 3 m/s 756 mmHg 84%

    11 Décembre, Mercredi

    Heure Température Précipitation Vent Pression Humidité
    00:00 +28°C° 0.1 mm 3 m/s 756 mmHg 85%
    01:00 +28°C° 0.1 mm 3 m/s 756 mmHg 86%
    02:00 +28°C° 0.1 mm 3 m/s 755 mmHg 87%
    03:00 +28°C° 0.1 mm 3 m/s 755 mmHg 88%
    04:00 +28°C° 0.2 mm 3 m/s 755 mmHg 89%
    05:00 +28°C° 0.2 mm 3 m/s 756 mmHg 90%
    06:00 +28°C° 0.2 mm 4 m/s 756 mmHg 91%
    07:00 +28°C° 0.2 mm 4 m/s 756 mmHg 87%
    08:00 +29°C° 0.2 mm 4 m/s 757 mmHg 84%
    09:00 +29°C° 0.2 mm 4 m/s 757 mmHg 81%
    10:00 +29°C° 0.3 mm 4 m/s 757 mmHg 80%
    11:00 +30°C° 0.3 mm 4 m/s 756 mmHg 80%
    12:00 +30°C° 0.3 mm 4 m/s 755 mmHg 79%
    13:00 +30°C° 0 mm 4 m/s 755 mmHg 78%
    14:00 +30°C° 0 mm 4 m/s 754 mmHg 76%
    15:00 +30°C° 0 mm 4 m/s 754 mmHg 75%
    16:00 +30°C° 0 mm 3 m/s 754 mmHg 76%
    17:00 +30°C° 0 mm 3 m/s 754 mmHg 78%
    18:00 +29°C° 0 mm 3 m/s 754 mmHg 80%
    19:00 +29°C° 0 mm 3 m/s 754 mmHg 80%
    20:00 +29°C° 0 mm 3 m/s 755 mmHg 81%
    21:00 +28°C° 0 mm 3 m/s 755 mmHg 82%
    22:00 +28°C° 0 mm 2 m/s 755 mmHg 83%
    23:00 +28°C° 0 mm 2 m/s 755 mmHg 85%
    Voir plus